Location: Ingoldesthorpe
(52.8667°N, 0.5167°E)
Time: 19:46:43
(UTC+00:00)

Meteor 1-27 Rocket - Pass Details

Date: 19 May 2025
Orbit: 829 x 908 km, 81.3° (Epoch: 21 June)

Event Time Altitude Azimuth Distance (km) Brightness Sun altitude
Exits shadow 22:30:53 23° 164° (SSE) 1,748 4.7 -14.9°
Maximum altitude 22:34:18 54° 96° (E) 1,017 4.0 -15.1°
Drops below altitude 10° 22:39:42 10° 20° (NNE) 2,456 6.9 -15.4°
Sets 22:42:08 0° 16° (NNE) 3,390 7.8 -15.5°
